Starlink 11567

operational
NORAD ID: 62909 Int'l Des: 2025-027 Owner: SPXS Country: US Constellation: starlink
LEOCIRCULAR

Über Starlink 11567

Beschreibung wird geladen...

Live-Position

3D-Globus wird geladen...

Nächste Überflüge

Höhenverlauf

Altitude vs Time

uPlot chart will show altitude changes over time

Zweizeiliger Elementsatz

1 62909U 25027C 26033.75245690 .00202600 00000-0 15332-2 0 9990
2 62909 43.0047 198.5927 0003153 267.8035 92.2472 15.71008731 57652
Epoch: 2. Feb. 2026 • Age: 34 hours

Aktueller Status

Höhe 357.9 km
Geschwindigkeit 7.70 km/s
Subsatellitenpunkt 36.07°N, 122.75°E
Startdatum 8. Feb. 2025
Alter 0.9 years
Typ internet

Technische Details

Klassifizierung Payload
Masse 960.00 kg
Trockenmasse 910.00 kg
Gesamtmasse 960.00 kg
Länge 0.30 m
Durchmesser 4.10 m
Spannweite 29.00 m
Form Box + pan
Hersteller SPXS
Bus-Typ Starlink V2MD
Phasenstatus In Orbit
Besitzer/Staat SPXS/US

Große Konstellationen

Loading constellations...